Location: ?????? ??????
(44.3742°N, 135.2221°E)
Time: 04:23:51
(UTC+00:00)

Cosmos 614 Rocket - Pass Details

Date: 19 May 2025
Orbit: 729 x 758 km, 74.1° (Epoch: 15 June)

Event Time Altitude Azimuth Distance (km) Brightness Sun altitude
Exits shadow 16:55:40 40° 187° (S) 1,115 4.4 -20.1°
Maximum altitude 16:57:35 78° 109° (ESE) 779 4.0 -19.9°
Drops below altitude 10° 17:02:47 10° 23° (NNE) 2,294 7.7 -19.4°
Sets 17:05:09 0° 23° (NNE) 3,221 8.8 -19.2°
